Hourly Weather Rubtsovsk

Today, 29 July, Thursday

Time Temperature Precipitation Wind Pressure Humidity
00:00 +13°C° 0 mm 1 mps 738 mmHg 64%
01:00 +13°C° 0 mm 1 mps 738 mmHg 65%
02:00 +13°C° 0 mm 1 mps 737 mmHg 66%
03:00 +13°C° 0 mm 1 mps 737 mmHg 65%
04:00 +12°C° 0 mm 0 mps 737 mmHg 64%
05:00 +13°C° 0 mm 0 mps 737 mmHg 63%
06:00 +16°C° 0 mm 1 mps 737 mmHg 55%
07:00 +20°C° 0 mm 1 mps 737 mmHg 47%
08:00 +22°C° 0 mm 1 mps 737 mmHg 39%
09:00 +23°C° 0 mm 2 mps 737 mmHg 35%
10:00 +24°C° 0 mm 2 mps 737 mmHg 32%
11:00 +25°C° 0 mm 3 mps 737 mmHg 29%
12:00 +26°C° 0 mm 3 mps 737 mmHg 28%
13:00 +26°C° 0 mm 3 mps 737 mmHg 27%
14:00 +27°C° 0 mm 3 mps 737 mmHg 27%
15:00 +26°C° 0 mm 3 mps 736 mmHg 28%
16:00 +26°C° 0 mm 4 mps 736 mmHg 30%
17:00 +25°C° 0 mm 4 mps 736 mmHg 31%
18:00 +22°C° 0 mm 3 mps 736 mmHg 37%
19:00 +20°C° 0 mm 3 mps 736 mmHg 43%
20:00 +18°C° 0 mm 2 mps 736 mmHg 48%
21:00 +18°C° 0 mm 2 mps 736 mmHg 50%
22:00 +17°C° 0 mm 2 mps 736 mmHg 52%
23:00 +16°C° 0 mm 2 mps 736 mmHg 54%

Tomorrow, 30 July, Friday

Time Temperature Precipitation Wind Pressure Humidity
00:00 +16°C° 0 mm 2 mps 736 mmHg 54%
01:00 +16°C° 0 mm 2 mps 736 mmHg 55%
02:00 +15°C° 0 mm 2 mps 736 mmHg 56%
03:00 +15°C° 0 mm 2 mps 736 mmHg 56%
04:00 +16°C° 0 mm 2 mps 737 mmHg 56%
05:00 +16°C° 0 mm 2 mps 737 mmHg 56%
06:00 +18°C° 0 mm 2 mps 737 mmHg 51%
07:00 +20°C° 0 mm 3 mps 738 mmHg 46%
08:00 +22°C° 0 mm 3 mps 738 mmHg 41%
09:00 +24°C° 0 mm 3 mps 739 mmHg 39%
10:00 +26°C° 0 mm 4 mps 739 mmHg 36%
11:00 +27°C° 0 mm 4 mps 739 mmHg 34%
12:00 +27°C° 0 mm 4 mps 739 mmHg 35%
13:00 +26°C° 0 mm 4 mps 739 mmHg 37%
14:00 +26°C° 0 mm 5 mps 739 mmHg 38%
15:00 +25°C° 0 mm 4 mps 740 mmHg 39%
16:00 +25°C° 0 mm 3 mps 740 mmHg 39%
17:00 +24°C° 0 mm 2 mps 740 mmHg 39%
18:00 +23°C° 0 mm 2 mps 741 mmHg 41%
19:00 +20°C° 0 mm 2 mps 741 mmHg 43%
20:00 +19°C° 0 mm 2 mps 741 mmHg 45%
21:00 +17°C° 0 mm 2 mps 741 mmHg 47%
22:00 +16°C° 0 mm 2 mps 741 mmHg 49%
23:00 +15°C° 0 mm 2 mps 742 mmHg 52%

Day after tomorrow, 31 July, Saturday

Time Temperature Precipitation Wind Pressure Humidity
00:00 +14°C° 0 mm 2 mps 742 mmHg 59%
01:00 +14°C° 0 mm 2 mps 742 mmHg 67%
02:00 +13°C° 0 mm 2 mps 742 mmHg 75%
03:00 +14°C° 0 mm 2 mps 742 mmHg 75%
04:00 +14°C° 0 mm 1 mps 742 mmHg 76%
05:00 +14°C° 0 mm 1 mps 742 mmHg 76%
06:00 +18°C° 0 mm 1 mps 742 mmHg 65%
07:00 +21°C° 0 mm 1 mps 742 mmHg 54%
08:00 +24°C° 0 mm 1 mps 742 mmHg 43%
09:00 +25°C° 0 mm 1 mps 742 mmHg 37%
10:00 +26°C° 0 mm 1 mps 742 mmHg 32%
11:00 +28°C° 0 mm 2 mps 742 mmHg 26%
12:00 +29°C° 0 mm 2 mps 741 mmHg 24%
13:00 +29°C° 0 mm 2 mps 741 mmHg 23%
14:00 +30°C° 0 mm 2 mps 740 mmHg 21%
15:00 +30°C° 0 mm 2 mps 740 mmHg 21%
16:00 +30°C° 0 mm 2 mps 740 mmHg 21%
17:00 +30°C° 0 mm 2 mps 740 mmHg 21%
18:00 +27°C° 0 mm 2 mps 740 mmHg 27%
19:00 +25°C° 0 mm 3 mps 740 mmHg 34%
20:00 +21°C° 0 mm 3 mps 740 mmHg 40%
21:00 +20°C° 0 mm 3 mps 740 mmHg 43%
22:00 +20°C° 0 mm 3 mps 740 mmHg 45%
23:00 +19°C° 0 mm 3 mps 740 mmHg 47%

1 August, Sunday

Time Temperature Precipitation Wind Pressure Humidity
00:00 +19°C° 0 mm 3 mps 740 mmHg 46%
01:00 +19°C° 0 mm 3 mps 739 mmHg 45%
02:00 +20°C° 0 mm 2 mps 739 mmHg 44%
03:00 +19°C° 0 mm 2 mps 739 mmHg 44%
04:00 +19°C° 0 mm 2 mps 739 mmHg 45%
05:00 +18°C° 0 mm 2 mps 739 mmHg 46%
06:00 +21°C° 0 mm 3 mps 739 mmHg 39%
07:00 +25°C° 0 mm 3 mps 739 mmHg 32%
08:00 +28°C° 0 mm 3 mps 739 mmHg 26%
09:00 +29°C° 0 mm 2 mps 739 mmHg 24%
10:00 +31°C° 0 mm 2 mps 739 mmHg 23%
11:00 +32°C° 0 mm 2 mps 738 mmHg 21%
12:00 +34°C° 0 mm 2 mps 738 mmHg 21%
13:00 +35°C° 0 mm 2 mps 738 mmHg 20%
14:00 +35°C° 0 mm 2 mps 737 mmHg 20%
15:00 +35°C° 0 mm 2 mps 737 mmHg 20%
16:00 +35°C° 0 mm 2 mps 737 mmHg 21%
17:00 +35°C° 0 mm 3 mps 736 mmHg 22%
18:00 +31°C° 0 mm 2 mps 737 mmHg 27%
19:00 +29°C° 0 mm 2 mps 737 mmHg 32%
20:00 +27°C° 0 mm 2 mps 737 mmHg 38%
21:00 +25°C° 0 mm 2 mps 737 mmHg 42%
22:00 +24°C° 0 mm 2 mps 737 mmHg 46%
23:00 +22°C° 0 mm 1 mps 736 mmHg 50%

2 August, Monday

Time Temperature Precipitation Wind Pressure Humidity
00:00 +21°C° 0 mm 1 mps 736 mmHg 53%
01:00 +21°C° 0 mm 1 mps 736 mmHg 55%
02:00 +20°C° 0 mm 1 mps 736 mmHg 58%
03:00 +20°C° 0 mm 1 mps 736 mmHg 60%
04:00 +20°C° 0 mm 1 mps 736 mmHg 61%
05:00 +20°C° 0 mm 1 mps 736 mmHg 63%
06:00 +23°C° 0 mm 1 mps 736 mmHg 55%
07:00 +26°C° 0 mm 2 mps 736 mmHg 48%
08:00 +29°C° 0 mm 2 mps 736 mmHg 41%
09:00 +30°C° 0 mm 3 mps 736 mmHg 36%
10:00 +31°C° 0 mm 3 mps 736 mmHg 30%
11:00 +34°C° 0 mm 3 mps 736 mmHg 25%
12:00 +35°C° 0 mm 3 mps 735 mmHg 24%
13:00 +35°C° 0 mm 3 mps 735 mmHg 22%
14:00 +36°C° 0 mm 3 mps 735 mmHg 20%
15:00 +36°C° 0 mm 2 mps 734 mmHg 21%
16:00 +36°C° 0 mm 2 mps 734 mmHg 21%
17:00 +35°C° 0 mm 1 mps 734 mmHg 22%
18:00 +34°C° 0 mm 2 mps 734 mmHg 25%
19:00 +31°C° 0 mm 2 mps 733 mmHg 29%
20:00 +29°C° 0 mm 3 mps 733 mmHg 32%
21:00 +27°C° 0 mm 3 mps 734 mmHg 43%
22:00 +25°C° 0 mm 3 mps 734 mmHg 54%
23:00 +22°C° 0 mm 4 mps 734 mmHg 65%

3 August, Tuesday

Time Temperature Precipitation Wind Pressure Humidity
00:00 +21°C° 0.2 mm 4 mps 735 mmHg 73%
01:00 +20°C° 0.2 mm 3 mps 735 mmHg 81%
02:00 +19°C° 0.2 mm 3 mps 736 mmHg 89%
03:00 +19°C° 0 mm 3 mps 736 mmHg 91%
04:00 +18°C° 0 mm 2 mps 736 mmHg 92%
05:00 +18°C° 0 mm 2 mps 737 mmHg 93%
06:00 +20°C° 0 mm 2 mps 737 mmHg 80%
07:00 +22°C° 0 mm 3 mps 738 mmHg 68%
08:00 +25°C° 0 mm 3 mps 738 mmHg 55%
09:00 +26°C° 0 mm 3 mps 738 mmHg 48%
10:00 +28°C° 0 mm 4 mps 738 mmHg 41%
11:00 +30°C° 0 mm 5 mps 738 mmHg 33%
12:00 +30°C° 0 mm 4 mps 738 mmHg 31%
13:00 +32°C° 0 mm 4 mps 738 mmHg 28%
14:00 +33°C° 0 mm 4 mps 738 mmHg 26%
15:00 +32°C° 0 mm 5 mps 738 mmHg 28%
16:00 +30°C° 0 mm 6 mps 738 mmHg 30%
17:00 +30°C° 0 mm 7 mps 737 mmHg 33%
18:00 +27°C° 0 mm 5 mps 738 mmHg 38%
19:00 +25°C° 0 mm 4 mps 738 mmHg 44%
20:00 +22°C° 0 mm 3 mps 738 mmHg 49%
21:00 +21°C° 0 mm 3 mps 738 mmHg 54%
22:00 +19°C° 0 mm 3 mps 739 mmHg 58%
23:00 +18°C° 0 mm 2 mps 739 mmHg 63%
Show more

We Need Your Consent

Meteoprog and our Service Providers may store and access personal data such as cookies, device identifiers or other similar technologies on your device and process such data to personalise content and ads, as well as provide social media features and to analyse the traffic.

  • Store and/or access information on your device

    Cookies, device identifiers or other information can be stored or accessed on your device for the purposes indicated above.

  • Personalised ads and content, ad and content measurement, audience insights, and products development

    Ads and content can be personalised based on a profile. More data can be added to better personalise ads and content. Ad and content performance can be measured. Insights about the audience who saw the ads and content can be derived. Such data can be used to develop or improve user’s experience, systems and software.

By clicking ‘I Agree’ you will allow the use of indicated cookies, device identifiers, web beacons or other similar technologies. Your settings can be changed in the browser on your device.

For certain purposes, legitimate interests may be relied on, rather than consent. You can read more about this in our Privacy and Cookie Policy.